Weather in Shorshely

Russia / Chuvash Republic     56°00′23″N   47°35′32″E
temp.,
°C
wind,
m/s
gust,
m/s
humid.,
%
clouds,
%
prec.,
mm/h
press.,
hPa
HPBL,
m
28 february, sun
sun2800:00−19nnw599892 0.0 1008195
03:00−20nnw499882 0.0 1009177
06:00−21nnw489873 0.0 1010135
09:00−19nnw589663 0.0 1011238
12:00−14nnw479389 0.0 1011392
15:00−12nnw589194 0.1 1013563
18:00−15nnw3496100 0.0 101448
21:00−17nnw2398100 0.1 101731
1 march, mon
mon100:00−19nnw2310084 0.0 101821
03:00−20nnw2310076 0.1 102020
06:00−21nnw2210079 0.0 102120
09:00−18wnw129571 0.0 102295
12:00−13w249067 0.0 1021326
15:00−11sw359382 0.0 1021280
18:00−12sw499596 0.0 1018203
21:00−10sw6119598 0.0 1015290
2 march, tue
tue200:00−6sw71395100 0.7 1011446
03:00−4sw81595100 2.4 1006589
06:00−2wsw81596100 1.6 1002571
09:000w61199100 3.1 1000615
12:000wnw610100100 0.4 999601
15:000wnw5109699 0.7 999663
18:00−1wnw4898100 0.3 999312
21:00−1nw71196100 2.1 1001582
3 march, wed
wed300:00−4nw5109598 0.3 1001358
03:00−6wnw4109593 0.4 1002270
06:00−6wnw4109669 0.1 1002302
09:00−6nw6109280 0.3 1004644
12:00−5nw71090100 0.2 1005892
15:00−5nnw71191100 0.4 1007949
18:00−6nw41288100 0.1 1008442
21:00−9nw5119457 0.1 1010237
4 march, thu
thu400:00−11wnw479612 0.0 101098
03:00−12wsw449738 0.0 101080
06:00−11sw5119574 0.0 1007214
09:00−6sw8149387 0.1 1004501
12:00−3wsw91592100 0.8 999893
15:00−1wsw111791100 1.1 9971229
18:00−1wsw101693100 0.2 9961079
21:00−1wsw91688100 0.3 9971000